Tracking 19706 objects as of 16-Jun-2019
HD Live streaming from Space Station
objects crossing your sky now

STARLINK OBJ R

Track STARLINK OBJ R now!
10-day predictions


NORAD ID: 44250
Int'l Code: 2019-029R
Perigee: 553.5 km
Apogee: 556.2 km
Inclination: 53.0 °
Period: 95.6 minutes
Semi major axis: 6925 km
RCS: Unknown
Launch date: May 24, 2019
Source: United States (US)
Launch site: AIR FORCE EASTERN TEST RANGE (AFETR)
aabbcc
Your satellite tracking list
Your tracking list is empty




NASA's NSSDC Master Catalog

Two Line Element Set (TLE):
1 44250U 19029R   19166.88925592 -.00797769 +00000-0 -57588-1 0  9998
2 44250 052.9989 069.7944 0001948 134.5172 225.5976 15.06227872002652
Source of the keplerian elements: AFSPC